星链-11431 (STARLINK-11431)

导读 | 豆包AI

STARLINK-11431是美国SpaceX星链星座中的一颗卫星,于2025年2月4日发射升空,属于星链低轨互联网卫星星座组网的组成部分。星链星座旨在为全球范围提供高速低延迟的宽带互联网服务,该卫星延续了星链星座标准化设计,承担着覆盖补网、增强星座通信容量的任务,服务全球用户的互联网接入需求。

基本信息
目录编号:
62890
目录名称:
STARLINK-11431
国际标识:
2025-024M
轨道中心:
EARTH
卫星名称:
星链-11431
卫星全名:
星链-11431 (STARLINK-11431)
卫星状态:
在轨 (已飞行450 天)
发射日期:
2025-02-04 UTC
国别 :
美国 (US)
星等 :
--
轨道信息
数据来源 国际轨道数据
星历时间: 2026-04-30T00:42:25+0800
13小时前
查看轨道信息
半长轴: 6734.461km
偏心率: 0.0000932
轨道倾角: 43.000°
近地点辐角 287.156°
升交点赤经 234.443°
平近点角 72.920°
近地点: 355.696km
远地点: 356.952km
周期: 91.667分钟
每日圈数: 15.709002
详细信息
固有亮度:
5
最大亮度:
2.5
卫星平台:
Starlink V1.0
覆盖范围:
全球
运营商:
太空探索技术公司
运营商所在国:
美国
制造商(研发单位):
太空探索技术公司
制造商所在国:
美国
使用方式:
暂无
卫星简介
Starlink 计划是 SpaceX 推出的全球卫星互联网项目,通过发射低轨道卫星,为全球尤其是偏远地区提供高速、低延迟的互联网服务。自 2019 年起,Starlink 已部署数千颗卫星,旨在缩小全球数字鸿沟,推动互联网普及。该项目还为军事、航空等行业提供通信支持,带来广泛经济效益。
2D轨道图
3D轨道图
轨道高度分析图
轨道倾角分析图
轨道综合分析图
查看轨道综合分析图